Location: downtown San Diego
(32.7310°N, 117.1990°W)
Time: 11:18:00
(UTC-07:00)

Daily predictions for brighter satellites

Satellite Brightness Start Highest point End
(mag) Time Altitude Azimuth Time Altitude Azimuth Time Altitude Azimuth
CZ-4B R/B 3.8 20:08:50 10° NNW 20:11:46 29° WNW 20:14:36 10° SW
Cosmos 923 Rocket 4.4 20:07:05 10° S 20:12:06 43° ESE 20:17:08 10° NNE
USA 276 4.1 20:11:57 10° NNW 20:14:18 19° NNE 20:16:37 10° E
NOSS 2-1 (D) 3.2 20:11:10 10° S 20:14:43 44° ESE 20:17:51 10° NE
Helios 1A Rocket 3.9 20:12:25 10° SE 20:15:54 28° ENE 20:19:23 10° NNE
Cosmos 2151 3.6 20:14:32 10° SSE 20:18:25 36° E 20:22:20 10° NNE
Cosmos 1633 2.5 20:17:08 10° S 20:20:44 90° W 20:24:21 10° N
Cosmos 2084 3.4 20:16:56 10° SSW 20:20:56 81° WNW 20:25:02 10° NNE
USA 186 1.6 20:20:12 10° SSE 20:23:02 50° ENE 20:25:41 10° N
ERS-2 3.5 20:23:15 10° NE 20:25:57 20° E 20:28:37 10° SE
SL-16 R/B 3.4 20:26:04 10° N 20:30:48 26° ENE 20:34:41 13° ESE
ISS -3.8 20:27:58 10° NW 20:31:20 84° NE 20:34:03 15° SE
Cosmos 1606 2.6 20:27:55 10° N 20:31:44 80° E 20:35:33 10° S
Cosmos 1842 Rocket 3.7 20:27:24 10° N 20:31:53 80° W 20:36:20 10° S
Cosmos 1697 Rocket 4.5 20:30:15 10° NW 20:35:11 32° WSW 20:40:06 10° SSW
Cosmos 2221 2.9 20:31:05 10° NNW 20:35:23 66° W 20:39:42 10° S
COSMOS 2455 4.0 20:31:44 10° SSE 20:36:01 21° ESE 20:40:20 10° ENE
SAR-Lupe-1 4.0 20:33:19 10° NNE 20:36:53 66° ESE 20:40:25 10° S
SAR-Lupe-4 3.5 20:35:30 10° NNE 20:39:03 60° ESE 20:42:34 10° S
ASTRO E2 3.8 20:39:17 10° SW 20:42:33 25° SSE 20:44:09 19° ESE
Cosmos 1680 Rocket 3.5 20:39:32 10° S 20:44:46 68° ESE 20:49:59 10° NNE
Meteor 2-19 Rocket 4.4 20:39:08 10° S 20:45:06 67° E 20:51:06 10° NNE
Cosmos 2112 Rocket 4.0 20:41:11 10° S 20:46:22 59° ESE 20:51:33 10° NNE
Cosmos 371 Rocket 3.4 20:41:44 10° NNW 20:46:33 79° WSW 20:51:21 10° SSE
Cosmos 1933 4.1 20:42:58 10° NNE 20:46:37 33° E 20:48:39 21° SE
Resurs 1-3 3.9 20:46:39 17° SE 20:49:47 46° ENE 20:53:59 10° N
Meteor 2-3 Rocket 3.7 20:44:12 10° S 20:49:48 69° E 20:55:30 10° NNE
Cosmos 1782 4.2 20:47:48 10° NNE 20:50:50 21° ENE 20:51:37 20° E
CZ-4 R/B 4.5 20:50:13 10° WSW 20:52:09 13° W 20:54:06 10° WNW
deb Centaur AC-2 4.1 20:53:00 10° WSW 20:57:14 57° S 20:59:41 24° ESE
Cosmos 2360 Rocket 3.6 21:00:40 10° N 21:05:00 22° ENE 21:06:54 19° E
SJ-6B 3.5 21:03:29 10° S 21:07:04 48° W 21:10:41 10° NNW
SL-27 R/B 2.4 21:07:27 19° S 21:09:53 64° ESE 21:13:26 10° NNE
Cosmos 2195 Rocket 4.4 21:04:40 10° S 21:10:46 86° E 21:16:55 10° N
Ariane Rocket 2.9 21:09:09 22° SSE 21:12:26 75° ENE 21:17:30 10° N
SPOT 3 Rocket 4.1 21:13:17 29° ESE 21:15:07 40° ENE 21:19:58 10° N
Gbstr 26 Del rocket 3.1 21:11:44 10° NW 21:15:24 52° NE 21:16:29 38° E
MOS 1 4.3 21:14:21 18° SSE 21:18:40 86° WSW 21:24:20 10° NNW
GP-B 3.6 21:14:36 10° NNE 21:18:45 37° E 21:19:08 37° ESE
Okean 3 Rocket 3.6 21:17:13 31° SSE 21:19:12 59° E 21:23:39 10° NNE
IGS 5A 3.5 21:18:42 42° SE 21:19:48 57° ENE 21:23:52 10° N
BREEZE-M DEB (TANK) 3.9 21:18:00 10° NNW 21:21:22 36° NE 21:24:56 23° E
BREEZE-M R/B 3.0 21:13:54 10° SW 21:22:48 83° SE 21:26:21 10° NE
Cosmos 1833 4.1 21:20:24 10° SSW 21:26:10 83° ESE 21:31:57 10° NNE
Cosmos 1980 Rocket 4.3 21:22:06 10° NW 21:26:21 22° W 21:30:37 10° SSW
Cosmos 332 Rocket 4.5 21:21:45 10° NNW 21:26:31 52° WSW 21:29:38 21° S
IRS-1A Rocket 4.3 21:22:45 20° S 21:26:37 75° WSW 21:32:07 10° NNW
OBJECT-B 3.6 21:24:45 10° SW 21:26:49 16° W 21:28:54 10° NW
Cosmos 1151 Rocket 3.3 21:22:57 10° N 21:27:11 47° E 21:27:33 45° E
Centaur D AC-28 3.9 21:28:16 10° WSW 21:34:05 69° S 22:17:57 10° E
Centaur D AC-28 3.9 21:28:16 10° WSW 21:34:05 69° S 22:17:56 10° E
Meteor 2-14 Rocket 4.4 21:33:13 31° SSE 21:36:10 64° E 21:42:15 10° NNE
Cosmos 2333 Rocket 3.7 21:33:51 10° NNE 21:37:53 20° ENE 21:38:29 19° ENE
ERS-1 Rocket 4.5 21:40:15 21° ENE 21:40:15 21° ENE 21:43:40 10° NNE
Cosmos 2026 Rocket 4.4 21:33:56 10° SSW 21:40:11 64° W 21:46:24 10° N
Cosmos 2322 Rocket 2.1 21:36:20 10° NNW 21:41:58 84° ENE 21:43:35 48° SSE
Aurora 2 Rocket 4.2 21:36:46 10° WSW 21:42:54 46° S 21:45:00 38° SE
Cosmos 1766 Rocket 4.1 21:45:51 26° SSW 21:48:05 55° W 21:52:22 10° N
Cosmos 1271 Rocket 3.9 21:44:42 10° NNW 21:48:28 40° W 21:49:38 31° SW
Landsat 7 3.9 21:48:05 51° S 21:49:14 74° WSW 21:54:01 10° NNW
Atlas Centaur 2 3.2 21:45:34 10° WSW 21:49:00 22° SW 21:49:00 22° SW
ATLAS 3B R/B 4.3 21:43:16 10° NW 21:49:27 31° WSW 21:55:02 13° SSW
USA 276 4.0 21:47:39 10° WNW 21:49:31 26° W 21:49:31 26° W
Resurs 01 Rocket 2.0 21:49:34 47° SSW 21:50:34 61° W 21:54:59 10° NNW
Cosmos 1328 Rocket 3.6 21:47:01 10° N 21:51:05 66° NE 21:51:05 66° NE
Cosmos 220 Rocket 3.9 21:47:10 10° NNW 21:51:33 84° WSW 21:51:42 82° SSW
Cosmos 2219 Rocket 3.7 21:50:31 10° N 21:54:46 22° ENE 21:54:46 22° ENE
SPOT 5 4.2 21:59:42 24° NE 21:59:42 24° NE 22:02:12 10° NNE
ATLAS 5 CENTAUR R/B 4.1 21:58:32 10° N 22:02:35 19° NE 22:03:34 18° ENE
SPOT 1/Viking Rocket 3.5 22:08:46 71° SSW 22:09:13 77° WSW 22:14:27 10° NNW
Spot 2 Rocket 3.6 22:12:19 65° NE 22:12:19 65° NE 22:16:57 10° N
Cosmos 2056 Rocket 3.4 22:07:01 10° NNW 22:12:18 78° WSW 22:12:24 77° WSW
SL-16 R/B 3.4 22:09:47 10° NW 22:14:52 35° WSW 22:16:35 29° SW
ARIANE 5 R/B 3.6 22:16:23 39° NNE 22:16:23 39° NNE 22:19:22 10° N
COSMOS 2455 3.7 22:15:44 10° SW 22:21:30 49° WNW 22:27:19 10° NNE
Meteor 1-10 Rocket 4.2 22:19:13 10° N 22:24:20 76° NNE 22:24:20 76° NNE
Cosmos 2333 4.5 22:19:29 10° NNW 22:24:22 56° NE 22:24:22 56° NE
Cosmos 972 Rocket 4.3 22:28:55 65° NNW 22:28:55 65° NNW 22:33:16 10° N
Cosmos 2266 Rocket 3.8 22:28:52 86° SSW 22:29:01 88° W 22:35:17 10° N
COSMOS 2428 3.7 22:31:34 10° N 22:35:46 36° NE 22:35:46 36° NE
Lacrosse 5 3.5 22:43:09 27° NNE 22:43:09 27° NNE 22:45:34 10° NNE
Cosmos 2360 Rocket 3.1 22:43:50 10° NW 22:48:40 41° W 22:48:40 41° W
Cosmos 2285 Rocket 4.4 22:44:13 10° N 22:49:22 53° NNE 22:49:22 53° NNE
Cosmos 2315 Rocket 4.4 22:48:50 10° N 22:53:58 57° NNE 22:53:58 57° NNE
Terra 3.4 23:04:31 32° NNW 23:04:31 32° NNW 23:07:03 10° NNW
Cosmos 2297 Rocket 4.0 23:15:32 23° NNE 23:15:32 23° NNE 23:17:33 10° NNE
NOSS 3-1 (C) 4.3 23:13:57 10° NW 23:21:46 63° WSW 23:21:46 63° WSW
Cosmos 2333 Rocket 3.5 23:16:57 10° NNW 23:20:29 35° WNW 23:20:29 35° WNW
Cosmos 2227 Rocket 4.2 23:28:45 20° NNE 23:28:45 20° NNE 23:30:24 10° NNE
Cosmos 2237 Rocket 3.9 23:21:18 10° N 23:24:18 27° NNE 23:24:18 27° NNE
Cosmos 2219 Rocket 3.9 23:33:37 10° NW 23:36:28 28° NW 23:36:28 28° NW
USA 229 DEB 4.3 23:32:05 10° NNW 23:38:12 61° NW 23:38:12 61° NW
USA 229 4.2 23:32:11 10° NNW 23:38:18 61° NW 23:38:18 61° NW
USA 267 4.4 23:39:02 10° NE 23:42:30 35° NE 23:42:30 35° NE
ATLAS 5 CENTAUR R/B 3.6 23:41:35 10° NNW 23:45:05 38° NW 23:45:05 38° NW
